Lamco Airport

Jump to: basic info | weather | comments

Related pages: nearby airports | nearby navaids | notams | map

Basic information (top)

Codes: UCN GLLB
Location: lon 5.867000, lat -10.050000, elev 30 ft / 9 m msl
Status: small_airport
Scheduled airline service: no
Links: Wikipedia Mobile

Weather (top)

Current conditions for Roberts International Airport 29nm (53km) NW (rec'd 2015/03/29 15:00Z):

GLRB 291500Z 24006KT 9999 BKN022 32/26 Q1010 NOSIG

Airport forecast for Roberts International Airport 29nm (53km) NW (rec'd 2015/03/28 00:51Z):

TAF GLRB 282200Z 2900/3006 22010KT 9999 BKN018 
      TEMPO 2901/2905 00000KT 9000 NSC 
      BECMG 2906/2908 04005KT 6000 SCT010 SCT100

Latest comments (top)

No comments yet for Lamco Airport

More... (top)

See also NOTAMs and nearby airports and navaids, or visit the Lamco Airport page at the main OurAirports website..